Retour au catalogue

STARLINK-31898

ActifCommunicationsVLEO
NORAD 59905·PAYLOAD·🇺🇸 United States

Lancé May 28, 2024 depuis Cape Canaveral Space Force Station

Loading…

Prochains Passages (prochaines 24 heures)

TLE

FraisSource: CelesTrak SupGP

Époque: Sep 14, 2026, 20:49 UTC

1 59905C 24100W   26257.86784722 -.00017740  00000+0 -64268-3 0  2577
2 59905  43.0007 133.5875 0001374 267.7727 283.5458 15.27580638    10

Suivez STARLINK-31898 en temps réel avec AllMySat

Download on the App Store